This demonstration page uses our WeatherBlox Daily Observations layout. Learn more.

Hourly Observations for August 6, 2020

Temp ( °F °C ) Dew Point ( °F °C ) Humidity (%) Winds ( mph kmh ) Pressure ( in mb ) Visibility ( mi km ) Precip ( " mm )
12:51 am 00:51 Clear 81 27.2 38 3.3 21 21 N 6 9 29.74 1007 10 16.0934 0 0
1:51 am 01:51 Clear 77 25 41 5 28 28 SSE 5 7 29.75 1007 10 16.0934 0 0
2:51 am 02:51 Clear 74 23.3 39 3.9 28 28 E 3 6 29.75 1008 10 16.0934 0 0
3:51 am 03:51 Clear 72 22.2 40 4.4 31 31 Calm 29.75 1008 10 16.0934 0 0
4:51 am 04:51 Clear 71 21.7 40 4.4 32 32 SE 5 7 29.77 1008 10 16.0934 0 0
5:51 am 05:51 Sunny 70 21.1 39 3.9 32 32 Calm 29.79 1009 10 16.0934 0 0
6:51 am 06:51 Sunny 76 24.4 41 5 29 29 Calm 29.8 1009 10 16.0934 0 0
7:51 am 07:51 Sunny 83 28.3 41 5 23 23 Calm 29.81 1009 10 16.0934 0 0
8:51 am 08:51 Sunny 89 31.7 38 3.3 16 16 SSW 3 6 29.8 1009 10 16.0934 0 0
9:51 am 09:51 Sunny 93 33.9 40 4.4 16 16 SSW 5 7 29.8 1009 10 16.0934 0 0
10:51 am 10:51 Sunny 98 36.7 38 3.3 12 12 NW 6 9 29.79 1009 10 16.0934 0 0
11:51 am 11:51 Sunny 99 37.2 37 2.8 12 12 WNW 5 7 29.77 1008 10 16.0934 0 0
12:51 pm 12:51 Sunny 100 37.8 40 4.4 13 13 Calm 29.75 1007 10 16.0934 0 0
1:51 pm 13:51 Sunny 104 40 41 5 12 12 WNW 12 19 29.72 1007 10 16.0934 0 0
2:51 pm 14:51 Sunny 103 39.4 40 4.4 11 11 undefined N/A 29.7 1006 10 16.0934 0 0
3:51 pm 15:51 Sunny 102 38.9 40 4.4 12 12 SW 10 17 29.69 1005 10 16.0934 0 0
4:51 pm 16:51 Sunny 102 38.9 40 4.4 12 12 VRB 7 11 29.67 1005 10 16.0934 0 0
5:51 pm 17:51 Sunny 101 38.3 39 3.9 12 12 WNW 6 9 29.67 1005 10 16.0934 0 0
6:51 pm 18:51 Sunny 100 37.8 39 3.9 12 12 W 9 15 29.67 1005 10 16.0934 0 0
7:51 pm 19:51 Clear 95 35 37 2.8 13 13 NNW 10 17 29.67 1005 10 16.0934 0 0
8:51 pm 20:51 Clear 92 33.3 38 3.3 15 15 NNW 9 15 29.68 1005 10 16.0934 0 0
9:51 pm 21:51 Clear 87 30.6 40 4.4 19 19 WNW 6 9 29.71 1006 10 16.0934 0 0
10:51 pm 22:51 Clear 86 30 39 3.9 19 19 NW 7 11 29.72 1007 10 16.0934 0 0
11:51 pm 23:51 Clear 80 26.7 38 3.3 22 22 N 3 6 29.73 1007 10 16.0934 0 0

Powered by AerisWeather